SCP
0 0 0 0 0 0 0 0 0 0 0 0 0 0 0 0 0 0 0 0 0 0 0 0 0 0 0 0 0 0 0 0 0 0 0 0 0 0 0 0 0 0 0
0 0 0 0 0 0 0 0 0 0 0 0 0 0 0 0 0 0 0 0 0 0 0 0 0 0 0 0 0 0 0 0 0 0 0 0 0 0 0 0 0 0 0
0 0 0 0 0 0 0 0 0 0 0 0 0 0 0 0 0 0 0 0 0 0 0 0 0 0 0 0 0 0 0 0 0 0 0 0 0 0 0 0 0 0 0
0 0 0 0 0 0 0 0 0 0 0 0 0 0 0 0 0 0 0 0 0 0 0 0 0 0 0 0 0 0 0 0 0 0 0 0 0 0 0 0 0 0 0
0 0 0 0 0 0 0 0 0 0 0 0 0 0 0 0 0 0 0 0 0 0 0 0 0 0 0 0 0 0 0 0 0 0 0 0 0 0 0 0 0 0 0
0 0 0 0 0 0 0 0 0 0 0 0 0 0 0 0 0 0 0 0 0 0 0 0 0 0 0 0 0 0 0 0 0 0 0 0 0 0 0 0 0 0 0
0 0 0 0 0 0 0 0 0 0 0 0 0 0 0 0 0 0 0 0 0 0 0 0 0 0 0 0 0 0 0 0 0 0 0 0 0 0 0 0 0 0 0
0 0 0 0 0 0 0 0 0 0 0 0 0 0 0 0 0 0 0 0 0 0 0 0 0 0 0 0 0 0 0 0 0 0 0 0 0 0 0 0 0 0 0
0 0 0 0 0 0 0 0 0 0 0 0 0 0 0 0 0 0 0 0 0 0 0 0 0 0 0 0 0 0 0 0 0 0 0 0 0 0 0 0 0 0 0
0 0 0 0 0 0 0 0 0 0 0 0 0 0 0 0 0 0 0 0 0 0 0 0 0 0 0 0 0 0 0 0 0 0 0 0 0 0 0 0 0 0 0
0 0 0 0 0 0 0 0 0 0 0 0 0 0 0 0 0 0 0 0 0 0 0 0 0 0 0 0 0 0 0 0 0 0 0 0 0 0 0 0 0 0 0
0 0 0 0 0 0 0 0 0 0 0 0 0 0 0 0 0 0 0 0 0 0 0 0 0 0 0 0 0 0 0 0 0 0 0 0 0 0 0 0 0 0 0
0 0 0 0 0 0 0 0 0 0 0 0 0 0 0 0 0 0 0 0 0 0 0 0 0 0 0 0 0 0 0 0 0 0 0 0 0 0 0 0 0 0 0
0 0 0 0 0 0 0 0 0 0 0 0 0 0 0 0 0 0 0 0 0 0 0 0 0 0 0 0 0 0 0 0 0 0 0 0 0 0 0 0 0 0 0
0 0 0 0 0 0 0 0 0 0 0 0 0 0 0 0 0 0 0 0 0 0 0 0 0 0 0 0 0 0 0 0 0 0 0 0 0 0 0 0 0 0 0
0 0 0 0 0 0 0 0 0 0 0 0 0 0 0 0 0 0 0 0 0 0 0 0 0 0 0 0 0 0 0 0 0 0 0 0 0 0 0 0 0 0 0
0 0 0 0 0 0 0 0 0 0 0 0 0 0 0 0 0 0 0 0 0 0 0 0 0 0 0 0 0 0 0 0 0 0 0 0 0 0 0 0 0 0 0
0 0 0 0 0 0 0 0 0 0 0 0 0 0 0 0 0 0 0 0 0 0 0 0 0 0 0 0 0 0 0 0 0 0 0 0 0 0 0 0 0 0 0
0 0 0 0 0 0 0 0 0 0 0 0 0 0 0 0 0 0 0 0 0 0 0 0 0 0 0 0 0 0 0 0 0 0 0 0 0 0 0 0 0 0 0
0 0 0 0 0 0 0 0 0 0 0 0 0 0 0 0 0 0 0 0 0 0 0 0 0 0 0 0 0 0 0 0 0 0 0 0 0 0 0 0 0 0 0
0 0 0 0 0 0 0 0 0 0 0 0 0 0 0 0 0 0 0 0 0 0 0 0 0 0 0 0 0 0 0 0 0 0 0 0 0 0 0 0 0 0 0
0 0 0 0 0 0 0 0 0 0 0 0 0 0 0 0 0 0 0 0 0 0 0 0 0 0 0 0 0 0 0 0 0 0 0 0 0 0 0 0 0 0 0
0 0 0 0 0 0 0 0 0 0 0 0 0 0 0 0 0 0 0 0 0 0 0 0 0 0 0 0 0 0 0 0 0 0 0 0 0 0 0 0 0 0 0
0 0 0 0 0 0 0 0 0 0 0 0 0 0 0 0 0 0 0 0 0 0 0 0 0 0 0 0 0 0 0 0 0 0 0 0 0 0 0 0 0 0 0
0 0 0 0 0 0 0 0 0 0 0 0 0 0 0 0 0 0 0 0 0 0 0 0 0 0 0 0 0 0 0 0 0 0 0 0 0 0 0 0 0 0 0
0 0 0 0 0 0 0 0 0 0 0 0 0 0 0 0 0 0 0 0 0 0 0 0 0 0 0 0 0 0 0 0 0 0 0 0 0 0 0 0 0 0 0
Wind_Speed
4 4 4 3 4 4 4 4 5 6 6 7 7 7 8 7 7 6 6 12 12 12 11 11 11 11 11 11 11 11 11 11 10 10 9 9 9 8 7 7 6 5 5
3 3 4 4 4 4 4 4 5 5 5 5 7 7 7 7 7 6 6 8 12 12 12 12 11 11 11 11 11 11 11 11 11 10 9 9 9 9 8 7 7 6 6
3 3 3 3 3 3 4 4 5 4 4 5 6 7 6 7 6 6 6 5 6 11 13 12 12 12 11 11 11 11 11 11 10 10 10 10 10 10 9 8 8 7 7
4 3 3 3 3 3 3 3 3 3 4 4 4 4 5 5 7 6 6 6 5 5 9 12 12 12 11 11 11 11 11 11 10 10 9 10 10 10 10 9 8 8 8
3 3 2 2 3 2 2 2 3 3 4 4 4 4 4 5 5 5 6 7 6 5 5 8 10 11 11 10 10 10 10 10 10 10 10 10 10 10 10 10 9 8 8
2 3 2 2 2 2 2 2 3 2 3 2 3 4 4 4 4 5 5 5 5 6 6 6 5 7 10 10 9 9 9 9 9 10 10 10 10 10 9 9 9 9 9
2 2 2 2 2 2 2 2 2 3 2 1 2 2 3 3 4 3 3 4 5 5 5 5 4 4 4 7 8 8 8 8 8 8 9 9 8 8 9 9 9 9 9
2 2 3 2 2 2 2 2 2 1 1 0 0 0 1 3 2 3 3 3 3 3 4 4 4 4 4 3 6 8 7 7 7 7 7 7 7 7 8 8 8 9 9
3 2 2 2 2 2 2 2 2 2 1 1 1 2 1 1 2 2 3 2 3 2 2 3 3 4 4 3 4 6 7 7 6 6 5 5 5 6 7 7 7 8 8
2 3 3 3 3 2 3 3 3 2 1 1 1 1 2 2 1 1 2 2 2 2 2 2 2 3 3 3 4 6 6 6 6 5 5 4 5 6 6 6 7 7 7
3 3 3 3 3 3 3 3 3 2 2 1 1 1 0 0 2 1 0 1 1 1 1 1 1 2 2 2 2 5 6 5 6 6 6 5 5 6 6 6 6 6 6
3 4 3 3 3 3 3 3 3 3 3 2 2 2 1 1 1 1 1 0 0 1 1 1 0 1 1 1 3 5 5 5 5 6 6 6 6 6 6 6 5 5 5
3 4 4 4 3 3 3 3 3 3 3 3 3 2 2 2 1 1 2 1 0 0 1 1 1 0 0 1 2 3 3 4 4 5 6 6 6 6 6 5 4 5 5
3 4 4 4 4 4 4 3 3 3 3 3 3 3 2 2 2 2 2 2 2 1 2 1 1 1 1 1 3 1 2 3 3 4 4 4 5 5 5 5 4 4 4
3 4 5 5 5 5 5 4 3 3 3 3 3 3 3 2 3 3 3 3 3 2 1 2 1 1 1 0 1 2 2 5 2 2 2 3 3 4 4 4 4 4 4
3 4 5 5 5 5 5 4 4 4 4 3 2 3 3 2 2 2 3 3 3 3 1 1 1 1 1 1 2 1 1 5 2 1 1 2 3 3 3 4 4 4 4
4 4 5 5 5 5 5 5 5 5 5 4 4 4 4 3 3 3 3 3 3 3 2 1 1 1 2 2 3 2 2 2 3 3 2 2 2 2 2 2 3 3 3
4 5 5 5 5 5 5 5 5 5 5 5 5 5 5 3 5 4 3 4 3 4 3 3 2 2 3 2 2 2 2 2 1 4 3 2 2 2 2 2 2 2 2
4 4 5 5 5 6 5 5 5 5 6 6 6 6 5 5 5 4 5 5 4 4 3 3 2 2 2 2 3 3 3 2 2 3 4 4 3 3 3 3 3 2 2
4 4 5 5 5 6 6 6 6 5 6 6 6 6 6 6 6 6 5 5 4 4 4 4 3 3 3 3 3 3 3 3 3 2 2 2 3 4 5 4 4 4 3
4 4 5 5 4 5 4 5 5 6 6 6 6 6 5 4 4 4 4 5 5 5 4 4 4 4 4 4 4 4 3 3 3 3 2 3 3 4 5 6 6 5 5
4 4 4 4 5 4 2 4 6 6 6 6 6 6 5 5 5 6 6 6 6 6 6 5 5 5 5 5 4 4 4 4 3 3 3 3 3 3 3 4 4 6 6
3 4 4 4 4 3 2 4 7 7 6 6 6 5 4 4 5 6 7 9 8 8 8 7 7 6 5 5 5 6 5 5 4 2 3 3 3 4 3 2 6 6 6
3 4 4 4 4 3 2 3 5 8 7 7 6 6 6 6 5 5 5 6 7 8 8 8 7 6 5 4 5 5 5 5 4 3 4 4 4 4 3 3 6 7 7
3 3 3 4 4 4 3 3 3 5 6 7 7 6 6 6 4 5 6 6 6 5 5 6 5 4 2 2 3 4 5 5 5 4 4 4 4 4 4 4 5 8 8
4 4 3 4 4 4 2 3 5 5 5 5 5 5 6 6 4 6 7 6 6 5 4 5 6 6 6 6 7 7 6 6 5 4 5 4 4 4 4 4 4 5 6
Wind_Direction
88 88 82 78 77 79 81 75 72 69 63 60 58 59 59 60 59 60 65 57 54 58 63 68 66 66 69 68 68 67 65 65 65 64 65 69 72 77 82 88 88 94 96
92 89 88 83 76 75 72 76 75 71 67 64 63 61 58 59 56 56 60 68 60 55 58 63 63 64 70 71 69 67 65 65 65 66 65 66 69 72 75 79 81 86 89
96 97 88 88 84 84 87 78 79 72 74 77 72 63 59 53 55 55 55 58 70 65 56 55 58 62 68 70 69 67 66 65 65 67 68 68 69 70 72 76 78 81 86
99 93 92 91 98 92 86 84 84 83 83 75 72 65 65 59 52 49 56 59 55 62 68 56 56 57 62 66 68 67 65 63 62 64 67 70 70 69 69 72 77 81 84
116 111 94 97 104 100 93 90 79 80 84 78 81 74 64 59 51 49 55 54 57 55 65 74 66 56 56 61 64 66 64 63 63 63 66 69 72 72 70 70 72 80 82
128 118 127 122 109 111 105 102 95 90 83 84 85 78 70 70 56 46 45 52 50 53 52 56 71 73 61 55 54 60 63 65 64 65 66 67 70 71 71 72 73 76 78
143 133 145 130 131 118 113 119 115 118 115 100 112 106 102 79 60 57 44 47 57 52 52 52 47 45 80 72 50 53 59 60 64 66 67 67 69 73 75 75 76 77 78
161 164 172 155 151 139 147 138 142 144 113 110 314 215 151 133 96 64 58 48 45 51 46 47 51 42 39 57 64 49 49 52 57 63 66 68 71 77 81 83 81 80 79
183 188 184 173 173 179 165 174 180 180 149 122 357 331 328 52 95 109 70 57 45 34 41 36 41 42 45 49 62 61 43 41 48 51 60 68 75 82 88 90 87 84 83
190 192 188 187 188 192 186 195 196 200 208 188 118 350 345 9 305 124 132 98 65 37 24 29 30 38 41 52 57 51 40 32 37 36 44 64 83 92 93 93 90 85 86
192 190 197 201 201 202 204 208 201 215 221 245 242 219 194 209 278 306 85 114 129 93 51 30 36 47 48 53 55 60 48 39 38 37 45 61 83 91 96 94 92 88 86
195 197 201 209 211 212 210 213 218 213 229 236 247 242 241 248 251 270 274 246 331 91 117 81 45 63 50 62 67 62 52 42 44 41 45 59 75 87 96 95 93 94 91
203 203 204 212 214 219 222 218 225 226 223 230 242 256 263 265 265 257 257 267 284 169 171 191 142 131 106 84 96 84 78 55 53 48 49 59 72 79 87 91 95 93 89
215 209 215 217 218 224 228 219 231 228 233 231 238 242 246 248 236 234 250 258 249 209 194 164 145 177 173 162 84 237 111 92 65 58 51 59 72 77 81 84 87 91 88
213 210 213 218 220 220 225 220 223 224 234 241 241 233 233 230 229 228 231 242 263 266 215 144 165 159 192 168 130 204 147 103 93 74 58 68 76 78 84 84 85 80 76
216 212 213 221 221 217 218 218 226 228 228 224 240 248 235 227 222 224 228 235 257 272 277 131 168 167 178 193 157 223 105 115 131 115 86 102 106 98 92 88 85 85 81
222 221 219 219 221 222 222 218 219 219 228 227 223 229 229 224 217 213 217 224 233 246 247 228 184 183 196 207 172 204 201 206 164 151 147 138 135 130 119 108 102 95 87
221 222 219 218 221 222 224 226 226 222 227 232 233 232 231 215 225 221 214 219 220 229 239 241 199 194 213 215 207 211 212 213 206 136 155 168 169 172 165 154 133 121 111
218 218 219 221 223 221 220 226 229 228 230 232 233 237 236 227 225 219 220 225 220 216 229 240 223 187 213 208 211 216 220 219 226 164 174 189 195 202 194 188 179 174 171
224 222 223 226 228 227 223 223 226 229 232 234 238 241 241 235 236 229 223 227 222 216 216 227 225 208 209 206 216 220 220 208 221 212 191 191 188 201 203 201 199 199 200
236 233 226 224 228 234 233 234 232 233 234 234 239 245 247 248 261 254 246 234 222 220 214 220 224 218 215 205 217 217 222 218 219 219 213 210 205 213 205 205 205 206 208
241 237 231 226 226 230 234 244 251 239 237 238 240 243 236 225 226 222 234 247 247 235 225 222 229 230 230 221 219 221 222 223 226 199 221 229 220 225 221 215 172 185 203
238 243 241 237 234 225 202 230 243 247 240 242 245 245 239 230 226 230 215 218 229 239 247 245 239 242 240 228 214 218 223 231 240 208 214 234 222 232 228 195 163 189 204
236 241 248 246 244 240 205 228 240 242 243 241 241 244 240 234 220 230 232 229 230 225 225 235 247 253 254 243 228 231 228 230 239 214 210 243 229 230 227 211 173 193 207
251 248 248 246 246 242 205 220 232 249 246 244 241 239 240 239 214 218 230 234 236 232 218 230 259 268 287 260 244 231 219 218 230 222 208 234 238 234 233 223 189 192 205
263 258 252 249 252 259 211 203 224 245 248 247 242 237 229 240 213 208 229 234 236 236 229 218 222 222 225 214 215 227 227 229 234 229 197 216 229 226 235 219 211 200 207